GW7104 Weather Reports


time (UTC)temp
F
wind
direction
speed
knots
gust
knots
rain 1hr
in
rain 24hr
in
rain mn
in
humidity
%
barometer
mb
20260508220126 69 180 2.6 2.6 0.00 0.00 0.00 36 1010.1
20260508215622 70 18 2.6 2.6 0.00 0.00 0.00 37 1010.1
20260508215119 70 288 1.7 1.7 0.00 0.00 0.00 35 1010.1
20260508214616 70 216 2.6 2.6 0.00 0.00 0.00 34 1010.5
20260508214113 70 228 1.7 1.7 0.00 0.00 0.00 37 1010.1
20260508213610 69 149 2.6 2.6 0.00 0.00 0.00 35 1010.1
20260508213106 69 60 0.0 0.0 0.00 0.00 0.00 36 1009.8
20260508212602 70 234 5.2 6.1 0.00 0.00 0.00 35 1010.5
20260508212059 70 186 1.7 1.7 0.00 0.00 0.00 34 1010.1
20260508211554 70 125 4.3 4.3 0.00 0.00 0.00 34 1010.5
20260508211051 70 258 3.5 3.5 0.00 0.00 0.00 35 1010.5
20260508210547 70 224 0.0 0.0 0.00 0.00 0.00 34 1010.5
20260508210045 70 207 3.5 3.5 0.00 0.00 0.00 33 1010.8
20260508205542 70 126 2.6 2.6 0.00 0.00 0.00 34 1010.8
20260508205038 70 197 2.6 2.6 0.00 0.00 0.00 36 1010.8
20260508204535 70 121 5.2 5.2 0.00 0.00 0.00 34 1011.2
20260508204031 70 157 0.0 0.0 0.00 0.00 0.00 34 1010.8
20260508203527 70 96 2.6 2.6 0.00 0.00 0.00 32 1011.2
20260508203023 70 216 1.7 1.7 0.00 0.00 0.00 34 1011.2
20260508202520 69 210 2.6 2.6 0.00 0.00 0.00 33 1010.8
20260508202017 69 188 3.5 3.5 0.00 0.00 0.00 33 1011.5
20260508201514 69 200 6.1 7.0 0.00 0.00 0.00 34 1011.5
20260508201010 69 280 1.7 1.7 0.00 0.00 0.00 34 1011.5
20260508200508 69 150 1.7 1.7 0.00 0.00 0.00 33 1011.2
20260508200003 70 142 3.5 3.5 0.00 0.00 0.00 32 1011.5
20260508195500 70 211 2.6 2.6 0.00 0.00 0.00 33 1011.5
20260508194956 71 181 2.6 2.6 0.00 0.00 0.00 35 1011.5
20260508194453 72 107 3.5 3.5 0.00 0.00 0.00 31 1011.5
20260508193950 72 201 2.6 2.6 0.00 0.00 0.00 32 1011.5
20260508193447 72 174 4.3 5.2 0.00 0.00 0.00 30 1011.2
20260508192943 74 240 0.0 0.0 0.00 0.00 0.00 30 1011.5
20260508192440 73 176 1.7 1.7 0.00 0.00 0.00 32 1011.5
20260508191937 72 309 1.7 1.7 0.00 0.00 0.00 30 1011.8
20260508191435 72 193 4.3 4.3 0.00 0.00 0.00 28 1011.8
20260508190931 72 354 2.6 2.6 0.00 0.00 0.00 30 1011.8
20260508190428 73 318 6.1 7.0 0.00 0.00 0.00 30 1012.2
20260508185924 72 42 2.6 2.6 0.00 0.00 0.00 33 1011.8
20260508185422 73 150 2.6 2.6 0.00 0.00 0.00 32 1012.2
20260508184919 72 295 2.6 2.6 0.00 0.00 0.00 31 1012.2
20260508184416 71 250 10.4 12.2 0.00 0.00 0.00 31 1012.2
20260508183913 71 176 2.6 2.6 0.00 0.00 0.00 31 1012.5
20260508183410 71 191 6.1 6.1 0.00 0.00 0.00 31 1012.2
20260508182905 71 132 5.2 6.1 0.00 0.00 0.00 29 1012.5
20260508182402 73 318 3.5 3.5 0.00 0.00 0.00 35 1012.5
20260508181858 72 345 2.6 2.6 0.00 0.00 0.00 32 1012.5
20260508181355 72 318 3.5 3.5 0.00 0.00 0.00 34 1013.0
20260508180852 72 234 4.3 5.2 0.00 0.00 0.00 33 1013.0
20260508180349 71 264 4.3 4.3 0.00 0.00 0.00 41 1013.0
20260508175844 72 332 3.5 3.5 0.00 0.00 0.00 35 1013.0
20260508175341 71 199 5.2 5.2 0.00 0.00 0.00 34 1013.0
20260508174840 71 168 7.0 7.8 0.00 0.00 0.00 35 1013.3
20260508174336 71 234 6.1 6.1 0.00 0.00 0.00 35 1013.3
20260508173833 71 174 3.5 3.5 0.00 0.00 0.00 34 1013.3
20260508173330 71 192 5.2 6.1 0.00 0.00 0.00 33 1013.6
20260508172826 71 158 4.3 5.2 0.00 0.00 0.00 34 1013.6
20260508172323 70 194 2.6 2.6 0.00 0.00 0.00 34 1013.6
20260508171820 70 149 2.6 2.6 0.00 0.00 0.00 35 1014.0
20260508171316 71 162 5.2 5.2 0.00 0.00 0.00 32 1014.0
20260508170813 72 169 6.1 7.0 0.00 0.00 0.00 33 1014.0
20260508170311 72 216 3.5 3.5 0.00 0.00 0.00 34 1014.3
20260508165808 71 322 3.5 3.5 0.00 0.00 0.00 35 1014.3
20260508165306 70 54 1.7 1.7 0.00 0.00 0.00 37 1014.3
20260508164800 69 170 4.3 4.3 0.00 0.00 0.00 33 1014.3
20260508164257 71 159 2.6 2.6 0.00 0.00 0.00 35 1014.3
20260508163755 70 258 3.5 3.5 0.00 0.00 0.00 34 1014.3
20260508163253 69 18 2.6 2.6 0.00 0.00 0.00 36 1014.6
20260508162748 70 258 7.0 8.7 0.00 0.00 0.00 36 1014.6
20260508162245 70 317 1.7 1.7 0.00 0.00 0.00 37 1014.6
20260508161742 69 234 2.6 2.6 0.00 0.00 0.00 37 1015.0
20260508161240 69 192 3.5 3.5 0.00 0.00 0.00 35 1015.0
20260508160737 68 187 5.2 6.1 0.00 0.00 0.00 36 1015.0
20260508160236 68 130 5.2 5.2 0.00 0.00 0.00 36 1015.0
20260508155731 70 201 2.6 2.6 0.00 0.00 0.00 37 1015.0
20260508155229 70 135 5.2 5.2 0.00 0.00 0.00 38 1015.0
20260508154726 68 198 0.0 0.0 0.00 0.00 0.00 39 1015.0
20260508154223 67 36 3.5 3.5 0.00 0.00 0.00 37 1015.3
20260508153720 68 197 3.5 3.5 0.00 0.00 0.00 37 1015.0
20260508153217 68 224 5.2 6.1 0.00 0.00 0.00 37 1015.3
20260508152714 67 152 3.5 3.5 0.00 0.00 0.00 38 1015.3
20260508152209 67 90 2.6 2.6 0.00 0.00 0.00 36 1015.3
20260508151706 67 121 6.1 7.0 0.00 0.00 0.00 37 1015.3
20260508151203 67 211 2.6 2.6 0.00 0.00 0.00 38 1015.7
20260508150659 68 164 2.6 2.6 0.00 0.00 0.00 35 1015.7
20260508150156 67 60 2.6 2.6 0.00 0.00 0.00 37 1015.3
20260508145652 68 42 1.7 1.7 0.00 0.00 0.00 35 1015.3
20260508145148 68 210 1.7 1.7 0.00 0.00 0.00 41 1015.7
20260508144646 67 204 2.6 2.6 0.00 0.00 0.00 36 1015.3
20260508144143 66 144 0.0 0.0 0.00 0.00 0.00 36 1015.3
20260508143641 66 183 6.1 6.1 0.00 0.00 0.00 35 1015.7
20260508143138 66 156 2.6 2.6 0.00 0.00 0.00 39 1015.7
20260508142634 66 205 3.5 3.5 0.00 0.00 0.00 37 1015.7
20260508142131 66 268 3.5 3.5 0.00 0.00 0.00 39 1016.0
20260508141627 65 177 2.6 2.6 0.00 0.00 0.00 40 1016.0
20260508141125 64 201 5.2 6.1 0.00 0.00 0.00 38 1015.7
20260508140622 63 156 2.6 2.6 0.00 0.00 0.00 40 1016.0
20260508140119 64 54 2.6 2.6 0.00 0.00 0.00 43 1016.0
20260508135614 64 210 2.6 2.6 0.00 0.00 0.00 41 1016.0
20260508135110 62 240 2.6 2.6 0.00 0.00 0.00 44 1015.7
20260508134608 61 122 0.0 0.0 0.00 0.00 0.00 46 1016.0
20260508134104 61 156 2.6 2.6 0.00 0.00 0.00 49 1016.0
20260508133601 60 162 1.7 1.7 0.00 0.00 0.00 49 1016.0
20260508133059 60 151 4.3 5.2 0.00 0.00 0.00 46 1016.0
20260508132556 60 354 1.7 1.7 0.00 0.00 0.00 46 1016.0
20260508132053 59 210 1.7 1.7 0.00 0.00 0.00 48 1016.0
20260508131548 58 207 1.7 1.7 0.00 0.00 0.00 49 1016.0
20260508131045 58 207 1.7 1.7 0.00 0.00 0.00 48 1016.0
20260508130542 58 108 1.7 1.7 0.00 0.00 0.00 48 1016.0
20260508130039 56 174 2.6 2.6 0.00 0.00 0.00 49 1016.0
20260508125534 56 222 3.5 3.5 0.00 0.00 0.00 52 1016.0
20260508125032 56 211 1.7 1.7 0.00 0.00 0.00 50 1016.0
20260508124530 54 179 1.7 1.7 0.00 0.00 0.00 56 1015.7
20260508124027 53 194 0.0 0.0 0.00 0.00 0.00 56 1016.0
20260508123525 53 204 3.5 3.5 0.00 0.00 0.00 55 1016.0
20260508123021 53 210 3.5 3.5 0.00 0.00 0.00 56 1016.0
20260508122519 52 234 1.7 1.7 0.00 0.00 0.00 54 1015.7
20260508122016 51 212 2.6 2.6 0.00 0.00 0.00 57 1016.0
20260508121514 50 228 2.6 2.6 0.00 0.00 0.00 60 1015.7
20260508121011 49 173 2.6 2.6 0.00 0.00 0.00 62 1016.0
20260508120508 49 240 0.0 0.0 0.00 0.00 0.00 64 1015.7
20260508120007 50 240 0.0 0.0 0.00 0.00 0.00 61 1015.7
20260508115504 49 210 1.7 1.7 0.00 0.00 0.00 60 1015.7
20260508115000 47 240 0.0 0.0 0.00 0.00 0.00 64 1015.7
20260508114457 46 240 0.0 0.0 0.00 0.00 0.00 71 1015.7
20260508113954 45 240 0.0 0.0 0.00 0.00 0.00 75 1015.7
20260508113451 45 240 0.0 0.0 0.00 0.00 0.00 75 1015.3
20260508112949 45 240 0.0 0.0 0.00 0.00 0.00 73 1015.3
20260508112445 45 240 0.0 0.0 0.00 0.00 0.00 75 1015.3
20260508111942 45 240 0.0 0.0 0.00 0.00 0.00 73 1015.3
20260508111439 45 240 0.0 0.0 0.00 0.00 0.00 73 1015.3
20260508110936 45 240 0.0 0.0 0.00 0.00 0.00 75 1015.0
20260508110434 45 240 0.0 0.0 0.00 0.00 0.00 74 1015.0
20260508105933 45 240 0.0 0.0 0.00 0.00 0.00 75 1015.3
20260508105430 45 240 1.7 1.7 0.00 0.00 0.00 73 1015.3
20260508104927 45 240 0.0 0.0 0.00 0.00 0.00 73 1015.3
20260508104425 45 240 0.0 0.0 0.00 0.00 0.00 72 1015.3
20260508103921 45 276 0.0 0.0 0.00 0.00 0.00 73 1015.0
20260508103418 45 276 0.0 0.0 0.00 0.00 0.00 75 1015.0
20260508102915 45 282 0.0 0.0 0.00 0.00 0.00 76 1015.0
20260508102414 45 282 0.0 0.0 0.00 0.00 0.00 75 1015.0
20260508101911 45 282 0.0 0.0 0.00 0.00 0.00 75 1015.0
20260508101408 44 320 2.6 2.6 0.00 0.00 0.00 75 1015.3
20260508100905 44 347 0.0 0.0 0.00 0.00 0.00 77 1015.0
20260508100404 44 347 0.0 0.0 0.00 0.00 0.00 78 1015.3
20260508095859 43 347 0.0 0.0 0.00 0.00 0.00 80 1015.3
20260508095357 42 347 0.0 0.0 0.00 0.00 0.00 79 1015.3
20260508094854 42 347 0.0 0.0 0.00 0.00 0.00 82 1015.0
20260508094351 42 347 0.0 0.0 0.00 0.00 0.00 82 1015.0
20260508093848 42 347 0.0 0.0 0.00 0.00 0.00 83 1015.0
20260508093345 41 347 0.0 0.0 0.00 0.00 0.00 83 1015.0
20260508092842 41 347 0.0 0.0 0.00 0.00 0.00 84 1015.0
20260508092340 41 347 0.0 0.0 0.00 0.00 0.00 83 1015.0
20260508091838 42 347 0.0 0.0 0.00 0.00 0.00 84 1015.0
20260508091334 42 347 0.0 0.0 0.00 0.00 0.00 84 1015.0
20260508090832 42 347 0.0 0.0 0.00 0.00 0.00 84 1015.0
20260508090331 41 347 0.0 0.0 0.00 0.00 0.00 85 1015.0
20260508085831 40 347 0.0 0.0 0.00 0.00 0.00 87 1015.0
20260508085329 40 347 0.0 0.0 0.00 0.00 0.00 88 1015.0
20260508084825 40 347 0.0 0.0 0.00 0.00 0.00 88 1015.0
20260508084322 40 347 0.0 0.0 0.00 0.00 0.00 88 1015.3
20260508083820 40 347 0.0 0.0 0.00 0.00 0.00 88 1015.0
20260508083317 40 347 0.0 0.0 0.00 0.00 0.00 88 1015.0
20260508082816 40 347 0.0 0.0 0.00 0.00 0.00 87 1015.0
20260508082314 40 347 0.0 0.0 0.00 0.00 0.00 87 1015.0
20260508081812 40 347 0.0 0.0 0.00 0.00 0.00 86 1015.0
20260508081308 40 347 0.0 0.0 0.00 0.00 0.00 86 1015.0
20260508080805 40 347 0.0 0.0 0.00 0.00 0.00 86 1014.6
20260508080304 40 347 0.0 0.0 0.00 0.00 0.00 87 1015.0
20260508075759 40 347 0.0 0.0 0.00 0.00 0.00 86 1015.0
20260508075256 41 347 0.0 0.0 0.00 0.00 0.00 86 1015.0
20260508074754 41 347 0.0 0.0 0.00 0.00 0.00 85 1015.0
20260508074251 41 347 0.0 0.0 0.00 0.00 0.00 85 1015.0
20260508073748 41 347 0.0 0.0 0.00 0.00 0.00 86 1014.6
20260508073246 41 347 0.0 0.0 0.00 0.00 0.00 85 1015.0
20260508072742 40 347 0.0 0.0 0.00 0.00 0.00 86 1015.0
20260508072239 41 347 0.0 0.0 0.00 0.00 0.00 85 1015.0
20260508071736 41 347 0.0 0.0 0.00 0.00 0.00 85 1015.0
20260508071235 41 347 0.0 0.0 0.00 0.00 0.00 84 1015.0
20260508070732 41 347 0.0 0.0 0.00 0.00 0.00 84 1015.0
20260508070231 40 347 0.0 0.0 0.00 0.00 0.00 84 1015.0
20260508065727 40 347 0.0 0.0 0.00 0.00 0.00 85 1015.0
20260508065225 41 347 0.0 0.0 0.00 0.00 0.00 85 1015.3
20260508064722 41 347 0.0 0.0 0.00 0.00 0.00 85 1015.3
20260508064221 41 347 0.0 0.0 0.00 0.00 0.00 86 1015.7
20260508063718 41 347 0.0 0.0 0.00 0.00 0.00 86 1015.7
20260508063215 41 347 0.0 0.0 0.00 0.00 0.00 85 1015.3
20260508062713 41 347 0.0 0.0 0.00 0.00 0.00 84 1015.7
20260508062210 41 347 0.0 0.0 0.00 0.00 0.00 84 1015.7
20260508061707 41 347 0.0 0.0 0.00 0.00 0.00 83 1015.7
20260508061204 41 347 0.0 0.0 0.00 0.00 0.00 84 1015.7
20260508060702 41 347 0.0 0.0 0.00 0.00 0.00 83 1015.7
20260508060158 42 347 0.0 0.0 0.00 0.00 0.00 82 1016.0
20260508055653 42 347 0.0 0.0 0.00 0.00 0.00 81 1015.7
20260508055151 42 347 0.0 0.0 0.00 0.00 0.00 81 1016.0
20260508054647 42 347 0.0 0.0 0.00 0.00 0.00 81 1016.0
20260508054144 42 347 0.0 0.0 0.00 0.00 0.00 80 1015.7
20260508053641 43 347 0.0 0.0 0.00 0.00 0.00 79 1016.0
20260508053139 43 347 0.0 0.0 0.00 0.00 0.00 79 1015.7
20260508052636 43 347 0.0 0.0 0.00 0.00 0.00 78 1015.7
20260508052133 43 347 0.0 0.0 0.00 0.00 0.00 78 1015.7
20260508051629 43 347 0.0 0.0 0.00 0.00 0.00 78 1015.7
20260508051125 43 347 0.0 0.0 0.00 0.00 0.00 76 1015.7
20260508050621 44 347 0.0 0.0 0.00 0.00 0.00 77 1015.3
20260508050119 44 347 0.0 0.0 0.00 0.00 0.00 77 1015.3
20260508045614 44 347 0.0 0.0 0.00 0.00 0.00 76 1015.3
20260508045113 44 347 0.0 0.0 0.00 0.00 0.00 77 1015.7
20260508044610 44 347 0.0 0.0 0.00 0.00 0.00 77 1015.7
20260508044106 44 347 0.0 0.0 0.00 0.00 0.00 77 1015.7
20260508043602 44 347 0.0 0.0 0.00 0.00 0.00 78 1015.7
20260508043100 44 347 0.0 0.0 0.00 0.00 0.00 77 1015.3
20260508042556 44 347 0.0 0.0 0.00 0.00 0.00 76 1015.7
20260508042054 44 347 0.0 0.0 0.00 0.00 0.00 75 1015.7
20260508041550 44 347 0.0 0.0 0.00 0.00 0.00 77 1015.3
20260508041046 44 347 0.0 0.0 0.00 0.00 0.00 77 1015.3
20260508040543 44 347 0.0 0.0 0.00 0.00 0.00 76 1015.3
20260508040041 44 347 0.0 0.0 0.00 0.00 0.00 75 1015.3
20260508035537 43 347 0.0 0.0 0.00 0.00 0.00 79 1015.3
20260508035035 43 347 0.0 0.0 0.00 0.00 0.00 79 1015.3
20260508034532 44 347 0.0 0.0 0.00 0.00 0.00 78 1015.3
20260508034029 44 347 0.0 0.0 0.00 0.00 0.00 77 1015.7
20260508033526 44 347 0.0 0.0 0.00 0.00 0.00 77 1015.7
20260508033025 44 347 0.0 0.0 0.00 0.00 0.00 77 1015.7
20260508032521 44 347 0.0 0.0 0.00 0.00 0.00 76 1015.7
20260508032019 44 347 0.0 0.0 0.00 0.00 0.00 75 1015.3
20260508031516 44 347 0.0 0.0 0.00 0.00 0.00 74 1015.7
20260508031011 44 347 0.0 0.0 0.00 0.00 0.00 73 1015.7
20260508030508 44 347 0.0 0.0 0.00 0.00 0.00 73 1015.3
20260508030006 45 347 0.0 0.0 0.00 0.00 0.00 73 1015.7
20260508025502 45 347 0.0 0.0 0.00 0.00 0.00 71 1015.3
20260508024959 45 347 0.0 0.0 0.00 0.00 0.00 74 1015.3
20260508024454 45 347 0.0 0.0 0.00 0.00 0.00 72 1015.7
20260508023952 45 347 0.0 0.0 0.00 0.00 0.00 72 1015.7
20260508023448 45 347 0.0 0.0 0.00 0.00 0.00 75 1015.3
20260508022946 45 347 0.0 0.0 0.00 0.00 0.00 75 1015.3
20260508022441 45 347 0.0 0.0 0.00 0.00 0.00 76 1015.7
20260508021938 45 347 0.0 0.0 0.00 0.00 0.00 72 1015.3
20260508021435 46 347 0.0 0.0 0.00 0.00 0.00 71 1015.3
20260508020930 45 347 0.0 0.0 0.00 0.00 0.00 72 1015.3
20260508020429 46 347 0.0 0.0 0.00 0.00 0.00 71 1015.7
20260508015925 46 347 0.0 0.0 0.00 0.00 0.00 70 1015.3
20260508015423 46 347 0.0 0.0 0.00 0.00 0.00 69 1015.7
20260508014919 46 347 0.0 0.0 0.00 0.00 0.00 67 1015.3
20260508014417 47 347 0.0 0.0 0.00 0.00 0.00 66 1015.3
20260508013917 47 347 0.0 0.0 0.00 0.00 0.00 63 1015.7
20260508013414 47 347 0.0 0.0 0.00 0.00 0.00 64 1015.7
20260508012911 47 347 0.0 0.0 0.00 0.00 0.00 63 1015.0
20260508012408 47 347 0.0 0.0 0.00 0.00 0.00 62 1015.3
20260508011906 48 347 0.0 0.0 0.00 0.00 0.00 61 1015.3
20260508011404 48 347 0.0 0.0 0.00 0.00 0.00 59 1015.3
20260508010900 48 347 0.0 0.0 0.00 0.00 0.00 58 1015.3
20260508010358 48 347 0.0 0.0 0.00 0.00 0.00 58 1015.0
20260508005855 49 347 0.0 0.0 0.00 0.00 0.00 58 1015.0
20260508005351 49 347 0.0 0.0 0.00 0.00 0.00 56 1015.0
20260508004848 50 347 0.0 0.0 0.00 0.00 0.00 57 1015.0
20260508004344 50 347 0.0 0.0 0.00 0.00 0.00 58 1015.0
20260508003841 51 347 0.0 0.0 0.00 0.00 0.00 54 1015.0
20260508003338 51 347 0.0 0.0 0.00 0.00 0.00 55 1015.0
20260508002835 51 347 0.0 0.0 0.00 0.00 0.00 50 1015.3
20260508002332 52 347 0.0 0.0 0.00 0.00 0.00 51 1015.0
20260508001828 53 347 0.0 0.0 0.00 0.00 0.00 52 1015.0
20260508001324 54 347 0.0 0.0 0.00 0.00 0.00 52 1015.0
20260508000820 54 347 0.0 0.0 0.00 0.00 0.00 47 1015.0
20260508000319 55 347 0.0 0.0 0.00 0.00 0.00 42 1015.0
20260507235813 56 347 0.0 0.0 0.00 0.00 0.00 44 1014.6
20260507235311 56 347 0.0 0.0 0.00 0.00 0.00 40 1014.6
20260507234808 56 348 1.7 1.7 0.00 0.00 0.00 39 1014.6
20260507234304 57 348 0.0 0.0 0.00 0.00 0.00 42 1014.6
20260507233800 57 332 1.7 1.7 0.00 0.00 0.00 34 1014.6
20260507233259 57 6 0.0 0.0 0.00 0.00 0.00 35 1014.6
20260507232757 57 6 0.0 0.0 0.00 0.00 0.00 35 1014.6
20260507232253 58 6 1.7 1.7 0.00 0.00 0.00 34 1014.3
20260507231749 58 96 0.0 0.0 0.00 0.00 0.00 35 1014.6
20260507231246 58 140 0.0 0.0 0.00 0.00 0.00 38 1014.3
20260507230743 58 140 0.0 0.0 0.00 0.00 0.00 35 1014.6
20260507230241 58 144 0.0 0.0 0.00 0.00 0.00 34 1014.3
20260507225740 58 168 0.0 0.0 0.00 0.00 0.00 33 1014.6
20260507225237 58 354 0.0 0.0 0.00 0.00 0.00 37 1014.6
20260507224732 59 48 0.0 0.0 0.00 0.00 0.00 35 1015.0
20260507224229 59 48 0.0 0.0 0.00 0.00 0.00 34 1014.3
20260507223725 59 60 0.0 0.0 0.00 0.00 0.00 37 1014.6
20260507223222 59 357 0.0 0.0 0.00 0.00 0.00 39 1014.6
20260507222719 59 18 0.0 0.0 0.00 0.00 0.00 37 1014.6
20260507222215 59 318 0.0 0.0 0.00 0.00 0.00 39 1014.6
20260507221712 59 318 0.0 0.0 0.00 0.00 0.00 33 1014.6
20260507221208 59 84 1.7 1.7 0.00 0.00 0.00 33 1014.6
20260507220705 59 6 1.7 1.7 0.00 0.00 0.00 33 1014.6